| time (UTC) | temp F | wind direction | speed MPH | gust MPH | rain 1hr in | rain 24hr in | rain mn in | humidity % | barometer mb |
| 20260502123045 | 83 | 130 | 0.0 | 9.0 | 0.00 | 0.00 | 0.00 | 32 | 1017.2 |
| 20260502121542 | 82 | 177 | 0.0 | 7.0 | 0.00 | 0.00 | 0.00 | 32 | 1017.4 |
| 20260502114534 | 82 | 234 | 2.0 | 8.0 | 0.00 | 0.00 | 0.00 | 32 | 1017.8 |
| 20260502113030 | 81 | 342 | 2.0 | 10.0 | 0.00 | 0.00 | 0.00 | 34 | 1018.0 |
| 20260502111528 | 80 | 300 | 0.0 | 11.0 | 0.00 | 0.00 | 0.00 | 35 | 1018.2 |
| 20260502110125 | 80 | 304 | 1.0 | 8.0 | 0.00 | 0.00 | 0.00 | 36 | 1018.4 |
| 20260502104522 | 80 | 213 | 2.0 | 7.0 | 0.00 | 0.00 | 0.00 | 37 | 1018.7 |
| 20260502103019 | 78 | 203 | 0.0 | 8.0 | 0.00 | 0.00 | 0.00 | 39 | 1018.9 |
| 20260502101516 | 77 | 204 | 0.0 | 5.0 | 0.00 | 0.00 | 0.00 | 39 | 1019.1 |
| 20260502091502 | 73 | 202 | 3.0 | 11.0 | 0.00 | 0.00 | 0.00 | 41 | 1019.8 |
| 20260502071530 | 61 | 169 | 0.0 | 2.0 | 0.00 | 0.00 | 0.00 | 56 | 1020.5 |
| 20260502070033 | 59 | 185 | 0.0 | 2.0 | 0.00 | 0.00 | 0.00 | 55 | 1020.7 |
| 20260502064534 | 57 | 51 | 0.0 | 0.0 | 0.00 | 0.00 | 0.00 | 60 | 1020.7 |
| 20260502063025 | 56 | 90 | 0.0 | 0.0 | 0.00 | 0.00 | 0.00 | 59 | 1020.7 |
| 20260502061517 | 55 | 108 | 0.0 | 0.0 | 0.00 | 0.00 | 0.00 | 58 | 1020.6 |
| 20260502060016 | 55 | 50 | 0.0 | 2.0 | 0.00 | 0.00 | 0.00 | 59 | 1020.5 |
| 20260502054515 | 54 | 73 | 0.0 | 4.0 | 0.00 | 0.00 | 0.00 | 60 | 1020.6 |
| 20260502053014 | 53 | 75 | 0.0 | 6.0 | 0.00 | 0.00 | 0.00 | 60 | 1020.6 |
| 20260502051516 | 53 | 71 | 0.0 | 6.0 | 0.00 | 0.00 | 0.00 | 61 | 1020.6 |
| 20260502050011 | 52 | 48 | 0.0 | 0.0 | 0.00 | 0.00 | 0.00 | 61 | 1020.6 |
| 20260502044510 | 52 | 50 | 0.0 | 5.0 | 0.00 | 0.00 | 0.00 | 61 | 1020.3 |
| 20260502043008 | 52 | 65 | 1.0 | 7.0 | 0.00 | 0.00 | 0.00 | 61 | 1020.3 |
| 20260502041506 | 52 | 45 | 0.0 | 6.0 | 0.00 | 0.00 | 0.00 | 61 | 1020.5 |
| 20260502040006 | 52 | 65 | 0.0 | 3.0 | 0.00 | 0.00 | 0.00 | 61 | 1020.6 |
| 20260502034502 | 53 | 39 | 0.0 | 0.0 | 0.00 | 0.00 | 0.00 | 60 | 1020.7 |
| 20260502033101 | 53 | 7 | 0.0 | 5.0 | 0.00 | 0.00 | 0.00 | 59 | 1020.6 |
| 20260502031601 | 53 | 40 | 0.0 | 8.0 | 0.00 | 0.00 | 0.00 | 59 | 1020.5 |
| 20260502030058 | 53 | 69 | 0.0 | 4.0 | 0.00 | 0.00 | 0.00 | 58 | 1020.4 |
| 20260502024557 | 53 | 80 | 0.0 | 3.0 | 0.00 | 0.00 | 0.00 | 58 | 1020.5 |
| 20260502023056 | 53 | 69 | 0.0 | 1.0 | 0.00 | 0.00 | 0.00 | 58 | 1020.6 |
| 20260502021555 | 53 | 71 | 0.0 | 0.0 | 0.00 | 0.00 | 0.00 | 58 | 1020.6 |
| 20260502020053 | 53 | 130 | 0.0 | 0.0 | 0.00 | 0.00 | 0.00 | 58 | 1020.6 |
| 20260502014557 | 54 | 130 | 0.0 | 0.0 | 0.00 | 0.00 | 0.00 | 56 | 1020.7 |
| 20260502013053 | 55 | 130 | 0.0 | 0.0 | 0.00 | 0.00 | 0.00 | 55 | 1020.7 |
| 20260502011550 | 55 | 130 | 0.0 | 3.0 | 0.00 | 0.00 | 0.00 | 53 | 1020.7 |
| 20260502010046 | 55 | 89 | 4.0 | 9.0 | 0.00 | 0.00 | 0.00 | 52 | 1020.6 |
| 20260502004546 | 55 | 114 | 0.0 | 4.0 | 0.00 | 0.00 | 0.00 | 52 | 1020.7 |
| 20260502003043 | 55 | 92 | 0.0 | 2.0 | 0.00 | 0.00 | 0.00 | 53 | 1020.6 |
| 20260502001542 | 55 | 100 | 0.0 | 4.0 | 0.00 | 0.00 | 0.00 | 53 | 1020.7 |
| 20260502000051 | 55 | 81 | 0.0 | 3.0 | 0.00 | 0.00 | 0.00 | 53 | 1020.8 |
| 20260501234538 | 55 | 117 | 0.0 | 0.0 | 0.00 | 0.00 | 0.00 | 53 | 1020.9 |
| 20260501233037 | 55 | 88 | 0.0 | 2.0 | 0.00 | 0.00 | 0.00 | 52 | 1020.9 |
| 20260501231535 | 56 | 144 | 0.0 | 3.0 | 0.00 | 0.00 | 0.00 | 52 | 1020.9 |
| 20260501230034 | 56 | 65 | 0.0 | 6.0 | 0.00 | 0.00 | 0.00 | 52 | 1020.8 |
| 20260501224531 | 57 | 107 | 0.0 | 3.0 | 0.00 | 0.00 | 0.00 | 51 | 1020.9 |
| 20260501223030 | 57 | 84 | 0.0 | 9.0 | 0.00 | 0.00 | 0.00 | 51 | 1020.9 |
| 20260501221530 | 57 | 57 | 0.0 | 5.0 | 0.00 | 0.00 | 0.00 | 51 | 1020.8 |
| 20260501220025 | 58 | 96 | 0.0 | 9.0 | 0.00 | 0.00 | 0.00 | 50 | 1020.9 |
| 20260501214533 | 58 | 88 | 0.0 | 9.0 | 0.00 | 0.00 | 0.00 | 50 | 1020.9 |
| 20260501213022 | 59 | 62 | 0.0 | 7.0 | 0.00 | 0.00 | 0.00 | 49 | 1020.8 |
| 20260501211522 | 59 | 73 | 0.0 | 5.0 | 0.00 | 0.00 | 0.00 | 48 | 1020.8 |
| 20260501210024 | 60 | 71 | 0.0 | 6.0 | 0.00 | 0.00 | 0.00 | 48 | 1020.8 |
| 20260501204520 | 61 | 109 | 0.0 | 5.0 | 0.00 | 0.00 | 0.00 | 48 | 1020.8 |
| 20260501203021 | 61 | 59 | 0.0 | 4.0 | 0.00 | 0.00 | 0.00 | 48 | 1020.7 |
| 20260501201520 | 62 | 80 | 0.0 | 4.0 | 0.00 | 0.00 | 0.00 | 48 | 1020.8 |
| 20260501200019 | 63 | 80 | 0.0 | 2.0 | 0.00 | 0.00 | 0.00 | 48 | 1020.6 |
| 20260501194528 | 64 | 71 | 0.0 | 0.0 | 0.00 | 0.00 | 0.00 | 49 | 1020.6 |
| 20260501193020 | 66 | 71 | 0.0 | 1.0 | 0.00 | 0.00 | 0.00 | 47 | 1020.5 |
| 20260501191518 | 68 | 82 | 0.0 | 0.0 | 0.00 | 0.00 | 0.00 | 44 | 1020.5 |
| 20260501190019 | 70 | 71 | 0.0 | 0.0 | 0.00 | 0.00 | 0.00 | 41 | 1020.4 |
| 20260501184516 | 72 | 71 | 0.0 | 0.0 | 0.00 | 0.00 | 0.00 | 36 | 1020.3 |
| 20260501183016 | 73 | 2 | 0.0 | 0.0 | 0.00 | 0.00 | 0.00 | 35 | 1020.1 |
| 20260501181517 | 74 | 2 | 0.0 | 0.0 | 0.00 | 0.00 | 0.00 | 35 | 1020.1 |
| 20260501180026 | 74 | 2 | 0.0 | 1.0 | 0.00 | 0.00 | 0.00 | 35 | 1020.0 |
| 20260501174516 | 75 | 2 | 0.0 | 3.0 | 0.00 | 0.00 | 0.00 | 33 | 1019.9 |
| 20260501173014 | 76 | 7 | 0.0 | 2.0 | 0.00 | 0.00 | 0.00 | 31 | 1019.8 |
| 20260501171517 | 77 | 36 | 0.0 | 4.0 | 0.00 | 0.00 | 0.00 | 30 | 1019.8 |
| 20260501170013 | 78 | 29 | 0.0 | 4.0 | 0.00 | 0.00 | 0.00 | 28 | 1019.9 |
| 20260501164515 | 78 | 321 | 0.0 | 4.0 | 0.00 | 0.00 | 0.00 | 28 | 1019.8 |
| 20260501163012 | 79 | 258 | 0.0 | 8.0 | 0.00 | 0.00 | 0.00 | 28 | 1020.0 |
| 20260501161512 | 79 | 7 | 0.0 | 3.0 | 0.00 | 0.00 | 0.00 | 28 | 1020.0 |
| 20260501160012 | 79 | 337 | 0.0 | 7.0 | 0.00 | 0.00 | 0.00 | 28 | 1020.0 |
| 20260501154510 | 80 | 287 | 0.0 | 5.0 | 0.00 | 0.00 | 0.00 | 27 | 1020.1 |
| 20260501153006 | 80 | 7 | 0.0 | 3.0 | 0.00 | 0.00 | 0.00 | 27 | 1020.2 |
| 20260501151504 | 81 | 248 | 1.0 | 4.0 | 0.00 | 0.00 | 0.00 | 26 | 1020.4 |
| 20260501150004 | 80 | 11 | 0.0 | 8.0 | 0.00 | 0.00 | 0.00 | 27 | 1020.5 |